When you browse on this site, cookies collect data to enhance your experience and personalize the content and advertising you see.
Visit our Privacy Policy to learn more. By continuing to use the site, you agree to this use of cookies and data.

Hourly Weather Boldyrevka

Today, 11 July, Saturday

Time Temperature Precipitation Wind Pressure Humidity
00:00 +19°C° 0 mm 2 mps 738 mmHg 85%
01:00 +18°C° 0 mm 2 mps 738 mmHg 88%
02:00 +17°C° 0 mm 2 mps 738 mmHg 92%
03:00 +17°C° 0 mm 2 mps 739 mmHg 94%
04:00 +17°C° 0 mm 2 mps 739 mmHg 93%
05:00 +17°C° 0 mm 3 mps 739 mmHg 93%
06:00 +17°C° 0 mm 3 mps 739 mmHg 92%
07:00 +19°C° 0 mm 3 mps 739 mmHg 88%
08:00 +21°C° 0 mm 3 mps 739 mmHg 84%
09:00 +24°C° 0 mm 3 mps 740 mmHg 82%
10:00 +25°C° 0 mm 3 mps 739 mmHg 77%
11:00 +27°C° 0 mm 2 mps 739 mmHg 73%
12:00 +28°C° 0 mm 2 mps 739 mmHg 69%
13:00 +29°C° 0 mm 2 mps 739 mmHg 67%
14:00 +29°C° 0 mm 2 mps 738 mmHg 65%
15:00 +29°C° 0 mm 2 mps 738 mmHg 64%
16:00 +29°C° 0.2 mm 1 mps 738 mmHg 66%
17:00 +29°C° 0.2 mm 1 mps 738 mmHg 69%
18:00 +27°C° 0.2 mm 0 mps 738 mmHg 72%
19:00 +25°C° 0 mm 0 mps 738 mmHg 77%
20:00 +23°C° 0 mm 0 mps 738 mmHg 82%
21:00 +23°C° 0 mm 1 mps 738 mmHg 86%
22:00 +23°C° 0.1 mm 1 mps 738 mmHg 87%
23:00 +22°C° 0.1 mm 1 mps 738 mmHg 88%

Tomorrow, 12 July, Sunday

Time Temperature Precipitation Wind Pressure Humidity
00:00 +20°C° 0.1 mm 0 mps 738 mmHg 89%
01:00 +21°C° 0 mm 1 mps 739 mmHg 90%
02:00 +21°C° 0 mm 1 mps 739 mmHg 91%
03:00 +20°C° 0 mm 1 mps 739 mmHg 92%
04:00 +21°C° 0 mm 1 mps 739 mmHg 92%
05:00 +21°C° 0 mm 1 mps 739 mmHg 92%
06:00 +20°C° 0 mm 0 mps 739 mmHg 93%
07:00 +23°C° 0 mm 1 mps 739 mmHg 88%
08:00 +25°C° 0 mm 1 mps 739 mmHg 83%
09:00 +26°C° 0 mm 1 mps 739 mmHg 78%
10:00 +27°C° 0.5 mm 1 mps 739 mmHg 75%
11:00 +28°C° 0.5 mm 1 mps 739 mmHg 71%
12:00 +29°C° 0.5 mm 1 mps 739 mmHg 68%
13:00 +30°C° 0 mm 1 mps 739 mmHg 65%
14:00 +30°C° 0 mm 1 mps 738 mmHg 62%
15:00 +31°C° 0 mm 1 mps 738 mmHg 60%
16:00 +30°C° 0 mm 1 mps 738 mmHg 64%
17:00 +30°C° 0 mm 1 mps 738 mmHg 68%
18:00 +30°C° 0 mm 1 mps 738 mmHg 71%
19:00 +28°C° 0 mm 1 mps 738 mmHg 75%
20:00 +26°C° 0 mm 1 mps 738 mmHg 79%
21:00 +24°C° 0 mm 1 mps 738 mmHg 83%
22:00 +23°C° 0 mm 1 mps 738 mmHg 84%
23:00 +23°C° 0 mm 1 mps 738 mmHg 85%

Day after tomorrow, 13 July, Monday

Time Temperature Precipitation Wind Pressure Humidity
00:00 +21°C° 0 mm 2 mps 738 mmHg 85%
01:00 +22°C° 0 mm 1 mps 738 mmHg 87%
02:00 +22°C° 0 mm 1 mps 738 mmHg 89%
03:00 +21°C° 0 mm 1 mps 738 mmHg 91%
04:00 +22°C° 0 mm 1 mps 738 mmHg 91%
05:00 +22°C° 0 mm 1 mps 738 mmHg 91%
06:00 +22°C° 0 mm 1 mps 738 mmHg 91%
07:00 +24°C° 0 mm 1 mps 738 mmHg 87%
08:00 +25°C° 0 mm 2 mps 738 mmHg 83%
09:00 +26°C° 0 mm 2 mps 738 mmHg 79%
10:00 +27°C° 0 mm 2 mps 738 mmHg 76%
11:00 +29°C° 0 mm 2 mps 737 mmHg 72%
12:00 +30°C° 0 mm 2 mps 737 mmHg 68%
13:00 +30°C° 0 mm 2 mps 737 mmHg 67%
14:00 +31°C° 0 mm 2 mps 737 mmHg 65%
15:00 +31°C° 0 mm 2 mps 736 mmHg 64%
16:00 +31°C° 0.5 mm 2 mps 736 mmHg 69%
17:00 +30°C° 0.5 mm 1 mps 736 mmHg 73%
18:00 +30°C° 0.5 mm 1 mps 736 mmHg 78%
19:00 +28°C° 0 mm 1 mps 736 mmHg 80%
20:00 +25°C° 0 mm 0 mps 736 mmHg 83%
21:00 +23°C° 0 mm 0 mps 735 mmHg 85%
22:00 +23°C° 0 mm 0 mps 736 mmHg 86%
23:00 +22°C° 0 mm 0 mps 736 mmHg 87%

14 July, Tuesday

Time Temperature Precipitation Wind Pressure Humidity
00:00 +24°C° 0 mm 1 mps 736 mmHg 88%
01:00 +21°C° 0 mm 0 mps 735 mmHg 88%
02:00 +21°C° 0 mm 0 mps 735 mmHg 89%
03:00 +20°C° 0 mm 0 mps 735 mmHg 90%
04:00 +21°C° 0.1 mm 0 mps 735 mmHg 90%
05:00 +21°C° 0.1 mm 0 mps 735 mmHg 90%
06:00 +22°C° 0.1 mm 0 mps 735 mmHg 90%
07:00 +25°C° 0.1 mm 1 mps 735 mmHg 86%
08:00 +27°C° 0.1 mm 1 mps 735 mmHg 81%
09:00 +28°C° 0.1 mm 1 mps 735 mmHg 77%
10:00 +29°C° 1.1 mm 1 mps 735 mmHg 77%
11:00 +29°C° 1.1 mm 2 mps 735 mmHg 78%
12:00 +30°C° 1.1 mm 2 mps 735 mmHg 79%
13:00 +31°C° 0.6 mm 2 mps 734 mmHg 74%
14:00 +31°C° 0.6 mm 2 mps 734 mmHg 68%
15:00 +32°C° 0.6 mm 1 mps 734 mmHg 63%
16:00 +32°C° 0 mm 1 mps 733 mmHg 66%
17:00 +31°C° 0 mm 1 mps 733 mmHg 70%
18:00 +31°C° 0 mm 1 mps 733 mmHg 73%
19:00 +29°C° 0.2 mm 1 mps 733 mmHg 77%
20:00 +27°C° 0.2 mm 1 mps 733 mmHg 81%
21:00 +25°C° 0.2 mm 1 mps 734 mmHg 84%
22:00 +25°C° 0.1 mm 2 mps 734 mmHg 87%
23:00 +24°C° 0.1 mm 2 mps 733 mmHg 90%

15 July, Wednesday

Time Temperature Precipitation Wind Pressure Humidity
00:00 +23°C° 0.1 mm 2 mps 733 mmHg 92%
01:00 +23°C° 0.1 mm 2 mps 733 mmHg 94%
02:00 +21°C° 0.1 mm 3 mps 733 mmHg 95%
03:00 +21°C° 0.1 mm 3 mps 733 mmHg 97%
04:00 +21°C° 0.5 mm 3 mps 733 mmHg 97%
05:00 +21°C° 0.5 mm 3 mps 733 mmHg 98%
06:00 +21°C° 0.5 mm 2 mps 733 mmHg 98%
07:00 +23°C° 0.1 mm 2 mps 733 mmHg 96%
08:00 +24°C° 0.1 mm 2 mps 733 mmHg 94%
09:00 +25°C° 0.1 mm 2 mps 733 mmHg 93%
10:00 +26°C° 0.1 mm 3 mps 733 mmHg 88%
11:00 +28°C° 0.1 mm 3 mps 733 mmHg 82%
12:00 +29°C° 0.1 mm 3 mps 732 mmHg 77%
13:00 +30°C° 1.4 mm 2 mps 732 mmHg 79%
14:00 +30°C° 1.4 mm 2 mps 732 mmHg 80%
15:00 +30°C° 1.4 mm 2 mps 731 mmHg 81%
16:00 +30°C° 0.2 mm 2 mps 731 mmHg 82%
17:00 +30°C° 0.2 mm 1 mps 731 mmHg 83%
18:00 +30°C° 0.2 mm 1 mps 731 mmHg 83%
19:00 +28°C° 0 mm 1 mps 731 mmHg 84%
20:00 +27°C° 0 mm 1 mps 731 mmHg 86%
21:00 +25°C° 0 mm 1 mps 731 mmHg 87%
22:00 +25°C° 0 mm 2 mps 731 mmHg 88%
23:00 +24°C° 0 mm 2 mps 731 mmHg 89%

16 July, Thursday

Time Temperature Precipitation Wind Pressure Humidity
00:00 +24°C° 0 mm 2 mps 731 mmHg 90%
01:00 +23°C° 0 mm 2 mps 731 mmHg 91%
02:00 +23°C° 0 mm 2 mps 731 mmHg 93%
03:00 +23°C° 0 mm 2 mps 731 mmHg 94%
04:00 +23°C° 0 mm 2 mps 732 mmHg 93%
05:00 +23°C° 0 mm 2 mps 732 mmHg 93%
06:00 +23°C° 0 mm 2 mps 732 mmHg 93%
07:00 +25°C° 0 mm 3 mps 732 mmHg 89%
08:00 +26°C° 0 mm 3 mps 732 mmHg 84%
09:00 +28°C° 0 mm 3 mps 732 mmHg 80%
10:00 +29°C° 0 mm 3 mps 732 mmHg 77%
11:00 +30°C° 0 mm 3 mps 732 mmHg 74%
12:00 +33°C° 0 mm 4 mps 731 mmHg 71%
13:00 +33°C° 0 mm 4 mps 731 mmHg 68%
14:00 +34°C° 0 mm 4 mps 731 mmHg 66%
15:00 +35°C° 0 mm 4 mps 731 mmHg 63%
16:00 +34°C° 0 mm 3 mps 731 mmHg 67%
17:00 +33°C° 0 mm 3 mps 731 mmHg 70%
18:00 +33°C° 0 mm 3 mps 731 mmHg 74%
19:00 +30°C° 0 mm 3 mps 731 mmHg 75%
20:00 +29°C° 0 mm 3 mps 731 mmHg 76%
21:00 +27°C° 0 mm 3 mps 731 mmHg 77%
22:00 +27°C° 0 mm 3 mps 731 mmHg 79%
23:00 +26°C° 0 mm 3 mps 732 mmHg 81%
Show more